Solidaridad 2

operational
NORAD ID: 23313 Int'l Des: 1994-065 Owner: TELMX Country: MX
HEOCIRCULAR

Solidaridad 2について

説明を読み込み中...

リアルタイム位置

3D地球を読み込み中...

次回通過

高度履歴

Altitude vs Time

uPlot chart will show altitude changes over time

軌道要素

1 23313U 94065A 26062.35866797 -.00000131 00000-0 00000+0 0 9998
2 23313 12.1783 32.0769 0005330 314.9025 233.4122 0.98864099114295
Epoch: Mar 3, 2026 • Age: 29 hours

現在のステータス

高度 36207.3 km
速度 3.06 km/s
衛星直下点 9.98°N, 73.45°W
打ち上げ日 Oct 8, 1994
運用期間 31.4 years
タイプ other

技術仕様

分類 Payload
質量 2776.00 kg
乾燥質量 1291.00 kg
総質量 2776.00 kg
長さ 4.00 m
直径 2.80 m
スパン 21.00 m
形状 Box + 2 Pan
製造者 HSES
バスタイプ HS-601
フェーズステータス Renamed
所有者/国 TELMX/MX

大規模コンステレーション

Loading constellations...